Time,TemperatureF,DewpointF,PressureIn,WindDirection,WindDirectionDegrees,WindSpeedMPH,WindSpeedGustMPH,Humidity,HourlyPrecipIn,Conditions,Clouds,dailyrainin,SoftwareType,DateUTC
2013-04-03 00:09:00,70.3,42.1,29.84,North,0,4.7,-999.0,36,-99.99,,,0.00,Acu-Link.com,2013-04-03 07:09:00,
2013-04-03 00:24:00,70.2,42.7,29.84,West,270,6.8,-999.0,37,-99.99,,,0.00,Acu-Link.com,2013-04-03 07:24:00,
2013-04-03 00:39:00,70.2,43.4,29.84,West,270,8.9,-999.0,38,-99.99,,,0.00,Acu-Link.com,2013-04-03 07:39:00,
2013-04-03 00:54:00,70.0,44.6,29.84,WSW,247,7.3,-999.0,40,-99.99,,,0.00,Acu-Link.com,2013-04-03 07:54:00,
2013-04-03 01:10:00,69.6,44.8,29.84,West,270,8.3,-999.0,41,-99.99,,,0.00,Acu-Link.com,2013-04-03 08:10:00,
2013-04-03 01:25:00,69.6,44.8,29.85,West,270,7.3,-999.0,41,-99.99,,,0.00,Acu-Link.com,2013-04-03 08:25:00,
2013-04-03 01:40:00,69.4,44.7,29.85,NW,315,4.7,-999.0,41,-99.99,,,0.00,Acu-Link.com,2013-04-03 08:40:00,
2013-04-03 01:55:00,69.3,45.2,29.85,West,270,6.3,-999.0,42,-99.99,,,0.00,Acu-Link.com,2013-04-03 08:55:00,
2013-04-03 02:10:00,69.3,45.2,29.85,West,270,10.4,-999.0,42,-99.99,,,0.00,Acu-Link.com,2013-04-03 09:10:00,
2013-04-03 02:25:00,68.9,45.5,29.85,ENE,67,8.9,-999.0,43,-99.99,,,0.00,Acu-Link.com,2013-04-03 09:25:00,
2013-04-03 02:40:00,68.5,45.7,29.86,West,270,8.3,-999.0,44,-99.99,,,0.00,Acu-Link.com,2013-04-03 09:40:00,
2013-04-03 02:55:00,68.2,46.0,29.86,WNW,292,8.3,-999.0,45,-99.99,,,0.00,Acu-Link.com,2013-04-03 09:55:00,
2013-04-03 03:11:00,68.4,46.2,29.85,WNW,292,7.3,-999.0,45,-99.99,,,0.00,Acu-Link.com,2013-04-03 10:11:00,
2013-04-03 03:26:00,68.5,46.3,29.85,NNW,337,6.8,-999.0,45,-99.99,,,0.00,Acu-Link.com,2013-04-03 10:26:00,
2013-04-03 03:41:00,68.0,47.0,29.85,West,270,7.8,-999.0,47,-99.99,,,0.00,Acu-Link.com,2013-04-03 10:41:00,
2013-04-03 03:56:00,67.6,46.1,29.85,West,270,7.8,-999.0,46,-99.99,,,0.00,Acu-Link.com,2013-04-03 10:56:00,
2013-04-03 04:27:00,67.6,46.1,29.85,WNW,292,6.3,-999.0,46,-99.99,,,0.00,Acu-Link.com,2013-04-03 11:27:00,
2013-04-03 04:42:00,67.1,45.0,29.85,West,270,3.2,-999.0,45,-99.99,,,0.00,Acu-Link.com,2013-04-03 11:42:00,
2013-04-03 04:57:00,67.3,44.6,29.86,ESE,112,3.7,-999.0,44,-99.99,,,0.00,Acu-Link.com,2013-04-03 11:57:00,
2013-04-03 05:12:00,67.1,45.0,29.86,NNW,337,3.2,-999.0,45,-99.99,,,0.00,Acu-Link.com,2013-04-03 12:12:00,
2013-04-03 05:27:00,65.8,45.6,29.87,NE,45,7.3,-999.0,48,-99.99,,,0.00,Acu-Link.com,2013-04-03 12:27:00,
2013-04-03 05:43:00,65.5,45.3,29.86,West,270,5.8,-999.0,48,-99.99,,,0.00,Acu-Link.com,2013-04-03 12:43:00,
2013-04-03 05:58:00,65.1,44.9,29.87,SW,225,5.3,-999.0,48,-99.99,,,0.00,Acu-Link.com,2013-04-03 12:58:00,
2013-04-03 06:13:00,64.8,44.6,29.88,WNW,292,6.3,-999.0,48,-99.99,,,0.00,Acu-Link.com,2013-04-03 13:13:00,
2013-04-03 06:29:00,64.6,45.0,29.89,SW,225,4.2,-999.0,49,-99.99,,,0.00,Acu-Link.com,2013-04-03 13:29:00,
2013-04-03 06:44:00,64.6,44.5,29.89,NW,315,4.2,-999.0,48,-99.99,,,0.00,Acu-Link.com,2013-04-03 13:44:00,
2013-04-03 06:59:00,64.8,44.1,29.89,WSW,247,4.7,-999.0,47,-99.99,,,0.00,Acu-Link.com,2013-04-03 13:59:00,
2013-04-03 07:14:00,65.7,44.3,29.90,WNW,292,4.2,-999.0,46,-99.99,,,0.00,Acu-Link.com,2013-04-03 14:14:00,
2013-04-03 07:29:00,66.4,43.8,29.89,NW,315,5.3,-999.0,44,-99.99,,,0.00,Acu-Link.com,2013-04-03 14:29:00,
2013-04-03 07:44:00,68.2,43.6,29.90,NNE,22,4.2,-999.0,41,-99.99,,,0.00,Acu-Link.com,2013-04-03 14:44:00,
2013-04-03 07:59:00,70.0,43.9,29.91,WNW,292,5.3,-999.0,39,-99.99,,,0.00,Acu-Link.com,2013-04-03 14:59:00,
2013-04-03 08:14:00,71.4,44.5,29.91,SW,225,4.2,-999.0,38,-99.99,,,0.00,Acu-Link.com,2013-04-03 15:14:00,
2013-04-03 08:29:00,74.1,44.7,29.91,West,270,4.7,-999.0,35,-99.99,,,0.00,Acu-Link.com,2013-04-03 15:29:00,
2013-04-03 08:44:00,74.8,43.0,29.90,West,270,2.2,-999.0,32,-99.99,,,0.00,Acu-Link.com,2013-04-03 15:44:00,
2013-04-03 09:00:00,76.6,43.7,29.91,West,270,5.3,-999.0,31,-99.99,,,0.00,Acu-Link.com,2013-04-03 16:00:00,
2013-04-03 09:30:00,79.9,38.8,29.90,WNW,292,3.2,-999.0,23,-99.99,,,0.00,Acu-Link.com,2013-04-03 16:30:00,
2013-04-03 09:45:00,82.4,37.3,29.91,SSW,202,1.7,-999.0,20,-99.99,,,0.00,Acu-Link.com,2013-04-03 16:45:00,
2013-04-03 10:16:00,84.6,36.4,29.90,SSE,157,0.0,-999.0,18,-99.99,,,0.00,Acu-Link.com,2013-04-03 17:16:00,
2013-04-03 10:31:00,84.6,33.4,29.89,SSE,157,0.0,-999.0,16,-99.99,,,0.00,Acu-Link.com,2013-04-03 17:31:00,
2013-04-03 10:46:00,87.6,34.2,29.89,SW,225,0.0,-999.0,15,-99.99,,,0.00,Acu-Link.com,2013-04-03 17:46:00,
2013-04-03 11:02:00,88.0,26.9,29.89,West,270,1.7,-999.0,11,-99.99,,,0.00,Acu-Link.com,2013-04-03 18:02:00,
2013-04-03 11:17:00,88.7,29.6,29.88,SW,225,2.2,-999.0,12,-99.99,,,0.00,Acu-Link.com,2013-04-03 18:17:00,
2013-04-03 11:47:00,90.3,26.3,29.89,ESE,112,4.2,-999.0,10,-99.99,,,0.00,Acu-Link.com,2013-04-03 18:47:00,
2013-04-03 12:02:00,90.3,28.7,29.88,SE,135,4.2,-999.0,11,-99.99,,,0.00,Acu-Link.com,2013-04-03 19:02:00,
2013-04-03 12:33:00,91.9,29.9,29.87,South,180,1.7,-999.0,11,-99.99,,,0.00,Acu-Link.com,2013-04-03 19:33:00,
2013-04-03 13:04:00,92.8,28.2,29.85,NNW,337,2.7,-999.0,10,-99.99,,,0.00,Acu-Link.com,2013-04-03 20:04:00,
2013-04-03 13:19:00,93.0,25.8,29.85,South,180,1.7,-999.0,9,-99.99,,,0.00,Acu-Link.com,2013-04-03 20:19:00,
2013-04-03 13:34:00,93.4,28.7,29.84,ENE,67,2.2,-999.0,10,-99.99,,,0.00,Acu-Link.com,2013-04-03 20:34:00,
2013-04-03 13:49:00,93.2,28.5,29.83,ESE,112,2.7,-999.0,10,-99.99,,,0.00,Acu-Link.com,2013-04-03 20:49:00,
2013-04-03 14:04:00,93.0,28.4,29.83,SSE,157,2.7,-999.0,10,-99.99,,,0.00,Acu-Link.com,2013-04-03 21:04:00,
2013-04-03 14:20:00,94.8,27.2,29.82,South,180,1.7,-999.0,9,-99.99,,,0.00,Acu-Link.com,2013-04-03 21:20:00,
2013-04-03 14:35:00,96.3,28.3,29.81,SE,135,1.1,-999.0,9,-99.99,,,0.00,Acu-Link.com,2013-04-03 21:35:00,
2013-04-03 14:50:00,95.5,27.7,29.81,NNE,22,2.7,-999.0,9,-99.99,,,0.00,Acu-Link.com,2013-04-03 21:50:00,
2013-04-03 15:05:00,95.7,25.0,29.80,SE,135,0.0,-999.0,8,-99.99,,,0.00,Acu-Link.com,2013-04-03 22:05:00,
2013-04-03 15:20:00,95.0,27.3,29.79,SE,135,2.7,-999.0,9,-99.99,,,0.00,Acu-Link.com,2013-04-03 22:20:00,
2013-04-03 15:51:00,95.7,25.0,29.77,SW,225,1.7,-999.0,8,-99.99,,,0.00,Acu-Link.com,2013-04-03 22:51:00,
2013-04-03 16:06:00,95.7,25.0,29.77,North,0,0.0,-999.0,8,-99.99,,,0.00,Acu-Link.com,2013-04-03 23:06:00,
2013-04-03 16:22:00,94.6,21.0,29.77,WSW,247,2.2,-999.0,7,-99.99,,,0.00,Acu-Link.com,2013-04-03 23:22:00,
2013-04-03 16:37:00,95.7,25.0,29.77,SSW,202,2.2,-999.0,8,-99.99,,,0.00,Acu-Link.com,2013-04-03 23:37:00,
2013-04-03 17:08:00,93.9,23.7,29.76,SSW,202,3.2,-999.0,8,-99.99,,,0.00,Acu-Link.com,2013-04-04 00:08:00,
2013-04-03 17:23:00,93.6,23.5,29.76,SSE,157,0.0,-999.0,8,-99.99,,,0.00,Acu-Link.com,2013-04-04 00:23:00,
2013-04-03 17:54:00,99.0,24.2,29.76,SE,135,2.7,-999.0,7,-99.99,,,0.00,Acu-Link.com,2013-04-04 00:54:00,
2013-04-03 18:24:00,96.3,22.2,29.77,North,0,2.7,-999.0,7,-99.99,,,0.00,Acu-Link.com,2013-04-04 01:24:00,
2013-04-03 18:40:00,89.4,35.6,29.76,NE,45,5.3,-999.0,15,-99.99,,,0.00,Acu-Link.com,2013-04-04 01:40:00,
2013-04-03 18:55:00,87.4,40.1,29.77,SSW,202,3.7,-999.0,19,-99.99,,,0.00,Acu-Link.com,2013-04-04 01:55:00,
2013-04-03 19:10:00,86.0,42.7,29.78,WSW,247,5.8,-999.0,22,-99.99,,,0.00,Acu-Link.com,2013-04-04 02:10:00,
2013-04-03 19:25:00,84.9,44.1,29.78,North,0,4.2,-999.0,24,-99.99,,,0.00,Acu-Link.com,2013-04-04 02:25:00,
2013-04-03 19:40:00,84.2,43.5,29.79,WNW,292,5.3,-999.0,24,-99.99,,,0.00,Acu-Link.com,2013-04-04 02:40:00,
2013-04-03 19:55:00,83.5,42.9,29.79,WNW,292,5.8,-999.0,24,-99.99,,,0.00,Acu-Link.com,2013-04-04 02:55:00,
2013-04-03 20:10:00,83.3,42.7,29.78,NNW,337,6.3,-999.0,24,-99.99,,,0.00,Acu-Link.com,2013-04-04 03:10:00,
2013-04-03 20:26:00,82.6,43.2,29.79,NNW,337,4.7,-999.0,25,-99.99,,,0.00,Acu-Link.com,2013-04-04 03:26:00,
2013-04-03 20:41:00,81.7,42.4,29.81,NW,315,4.7,-999.0,25,-99.99,,,0.00,Acu-Link.com,2013-04-04 03:41:00,
2013-04-03 20:56:00,81.3,42.1,29.81,NNW,337,4.2,-999.0,25,-99.99,,,0.00,Acu-Link.com,2013-04-04 03:56:00,
2013-04-03 21:11:00,80.6,42.5,29.82,WNW,292,9.4,-999.0,26,-99.99,,,0.00,Acu-Link.com,2013-04-04 04:11:00,
2013-04-03 21:27:00,79.9,42.9,29.82,West,270,7.8,-999.0,27,-99.99,,,0.00,Acu-Link.com,2013-04-04 04:27:00,
2013-04-03 21:57:00,79.0,42.1,29.84,West,270,7.3,-999.0,27,-99.99,,,0.00,Acu-Link.com,2013-04-04 04:57:00,
2013-04-03 22:12:00,79.2,42.3,29.84,NNW,337,7.3,-999.0,27,-99.99,,,0.00,Acu-Link.com,2013-04-04 05:12:00,
2013-04-03 22:28:00,79.0,40.2,29.84,NNE,22,4.7,-999.0,25,-99.99,,,0.00,Acu-Link.com,2013-04-04 05:28:00,
2013-04-03 22:43:00,78.3,39.6,29.84,North,0,6.8,-999.0,25,-99.99,,,0.00,Acu-Link.com,2013-04-04 05:43:00,
2013-04-03 22:58:00,77.7,39.1,29.84,West,270,8.9,-999.0,25,-99.99,,,0.00,Acu-Link.com,2013-04-04 05:58:00,
2013-04-03 23:13:00,77.0,39.5,29.85,ESE,112,7.8,-999.0,26,-99.99,,,0.00,Acu-Link.com,2013-04-04 06:13:00,
2013-04-03 23:28:00,76.5,41.0,29.85,NW,315,6.3,-999.0,28,-99.99,,,0.00,Acu-Link.com,2013-04-04 06:28:00,
2013-04-03 23:43:00,76.1,41.5,29.85,WNW,292,8.3,-999.0,29,-99.99,,,0.00,Acu-Link.com,2013-04-04 06:43:00,
2013-04-03 23:58:00,75.6,42.0,29.85,West,270,6.8,-999.0,30,-99.99,,,0.00,Acu-Link.com,2013-04-04 06:58:00,